• In United Kingdom
  • List of Countries
  • For 7 days
  • Water Temperature
  • Satellite Maps
  • Weather Map
  • Weather Widgets
  • user-avatar
    Login

    Hourly Weather Ashtarak

    Today, 22 September, Saturday

    Time Temperature Precipitation Wind Pressure Humidity
    00:00 +17°C° 0.4 mm 2 mps 660 mmHg 73%
    01:00 +17°C° 0.5 mm 2 mps 660 mmHg 74%
    02:00 +16°C° 0.5 mm 2 mps 660 mmHg 75%
    03:00 +16°C° 0 mm 2 mps 660 mmHg 77%
    04:00 +16°C° 0.5 mm 2 mps 660 mmHg 78%
    05:00 +15°C° 0.5 mm 2 mps 660 mmHg 79%
    06:00 +15°C° 0.5 mm 2 mps 660 mmHg 80%
    07:00 +17°C° 0.4 mm 2 mps 660 mmHg 72%
    08:00 +18°C° 0.4 mm 2 mps 660 mmHg 64%
    09:00 +20°C° 0.4 mm 2 mps 661 mmHg 56%
    10:00 +21°C° 0.3 mm 2 mps 661 mmHg 52%
    11:00 +23°C° 0.3 mm 2 mps 661 mmHg 48%
    12:00 +24°C° 0.3 mm 2 mps 661 mmHg 44%
    13:00 +24°C° 0.4 mm 2 mps 660 mmHg 43%
    14:00 +24°C° 0.4 mm 2 mps 660 mmHg 42%
    15:00 +25°C° 0.4 mm 2 mps 660 mmHg 41%
    16:00 +23°C° 0.7 mm 2 mps 660 mmHg 46%
    17:00 +21°C° 0.7 mm 2 mps 659 mmHg 51%
    18:00 +19°C° 0.7 mm 2 mps 659 mmHg 57%
    19:00 +19°C° 0.5 mm 2 mps 659 mmHg 60%
    20:00 +18°C° 0.5 mm 2 mps 660 mmHg 63%
    21:00 +17°C° 0.5 mm 2 mps 660 mmHg 67%
    22:00 +18°C° 0.1 mm 1 mps 660 mmHg 69%
    23:00 +16°C° 0.1 mm 1 mps 659 mmHg 71%

    Tomorrow, 23 September, Sunday

    Time Temperature Precipitation Wind Pressure Humidity
    00:00 +16°C° 0.1 mm 1 mps 659 mmHg 73%
    01:00 +15°C° 0 mm 1 mps 659 mmHg 74%
    02:00 +15°C° 0 mm 1 mps 659 mmHg 75%
    03:00 +15°C° 0 mm 1 mps 659 mmHg 76%
    04:00 +15°C° 0 mm 1 mps 659 mmHg 77%
    05:00 +14°C° 0 mm 1 mps 659 mmHg 78%
    06:00 +14°C° 0 mm 1 mps 659 mmHg 79%
    07:00 +16°C° 0 mm 1 mps 659 mmHg 70%
    08:00 +19°C° 0 mm 1 mps 660 mmHg 60%
    09:00 +21°C° 0 mm 1 mps 660 mmHg 50%
    10:00 +23°C° 0 mm 1 mps 660 mmHg 45%
    11:00 +24°C° 0 mm 1 mps 660 mmHg 41%
    12:00 +25°C° 0 mm 2 mps 660 mmHg 36%
    13:00 +25°C° 0.1 mm 2 mps 660 mmHg 35%
    14:00 +26°C° 0.1 mm 2 mps 660 mmHg 33%
    15:00 +26°C° 0.1 mm 2 mps 659 mmHg 32%
    16:00 +24°C° 0.5 mm 2 mps 659 mmHg 38%
    17:00 +22°C° 0.5 mm 1 mps 659 mmHg 44%
    18:00 +20°C° 0.5 mm 1 mps 658 mmHg 51%
    19:00 +19°C° 0.5 mm 1 mps 659 mmHg 54%
    20:00 +19°C° 0.5 mm 1 mps 659 mmHg 57%
    21:00 +17°C° 0.5 mm 2 mps 659 mmHg 61%
    22:00 +17°C° 0.2 mm 2 mps 659 mmHg 64%
    23:00 +16°C° 0.2 mm 2 mps 660 mmHg 67%

    Day after tomorrow, 24 September, Monday

    Time Temperature Precipitation Wind Pressure Humidity
    00:00 +16°C° 0.2 mm 2 mps 660 mmHg 70%
    01:00 +15°C° 0 mm 2 mps 659 mmHg 73%
    02:00 +15°C° 0 mm 2 mps 659 mmHg 76%
    03:00 +14°C° 0 mm 2 mps 659 mmHg 79%
    04:00 +14°C° 0 mm 2 mps 659 mmHg 80%
    05:00 +14°C° 0 mm 2 mps 659 mmHg 80%
    06:00 +13°C° 0 mm 2 mps 659 mmHg 81%
    07:00 +15°C° 0 mm 2 mps 660 mmHg 71%
    08:00 +17°C° 0 mm 2 mps 661 mmHg 61%
    09:00 +20°C° 0 mm 2 mps 661 mmHg 51%
    10:00 +21°C° 0 mm 2 mps 661 mmHg 46%
    11:00 +23°C° 0 mm 1 mps 661 mmHg 41%
    12:00 +24°C° 0 mm 1 mps 661 mmHg 36%
    13:00 +25°C° 0 mm 1 mps 661 mmHg 35%
    14:00 +25°C° 0 mm 1 mps 661 mmHg 34%
    15:00 +25°C° 0 mm 1 mps 661 mmHg 33%
    16:00 +23°C° 0 mm 1 mps 660 mmHg 37%
    17:00 +22°C° 0 mm 1 mps 660 mmHg 41%
    18:00 +20°C° 0 mm 1 mps 659 mmHg 46%
    19:00 +19°C° 0 mm 1 mps 660 mmHg 50%
    20:00 +18°C° 0 mm 1 mps 660 mmHg 55%
    21:00 +18°C° 0 mm 1 mps 660 mmHg 59%
    22:00 +16°C° 0 mm 1 mps 660 mmHg 62%
    23:00 +16°C° 0 mm 1 mps 660 mmHg 65%

    25 September, Tuesday

    Time Temperature Precipitation Wind Pressure Humidity
    00:00 +16°C° 0 mm 1 mps 660 mmHg 68%
    01:00 +15°C° 0 mm 1 mps 659 mmHg 70%
    02:00 +15°C° 0 mm 1 mps 659 mmHg 71%
    03:00 +14°C° 0 mm 1 mps 659 mmHg 73%
    04:00 +14°C° 0 mm 1 mps 659 mmHg 73%
    05:00 +13°C° 0 mm 0 mps 659 mmHg 72%
    06:00 +13°C° 0 mm 0 mps 658 mmHg 71%
    07:00 +16°C° 0 mm 1 mps 659 mmHg 60%
    08:00 +20°C° 0 mm 1 mps 660 mmHg 48%
    09:00 +22°C° 0 mm 1 mps 660 mmHg 37%
    10:00 +24°C° 0 mm 2 mps 660 mmHg 34%
    11:00 +25°C° 0 mm 2 mps 660 mmHg 31%
    12:00 +26°C° 0 mm 2 mps 660 mmHg 27%
    13:00 +27°C° 0 mm 2 mps 660 mmHg 27%
    14:00 +27°C° 0 mm 2 mps 659 mmHg 26%
    15:00 +27°C° 0 mm 2 mps 659 mmHg 25%
    16:00 +25°C° 0 mm 1 mps 658 mmHg 30%
    17:00 +23°C° 0 mm 1 mps 658 mmHg 34%
    18:00 +21°C° 0 mm 1 mps 657 mmHg 39%
    19:00 +20°C° 0 mm 1 mps 658 mmHg 44%
    20:00 +20°C° 0 mm 1 mps 658 mmHg 48%
    21:00 +18°C° 0 mm 2 mps 658 mmHg 53%
    22:00 +18°C° 0 mm 2 mps 658 mmHg 57%
    23:00 +17°C° 0 mm 2 mps 658 mmHg 62%

    26 September, Wednesday

    Time Temperature Precipitation Wind Pressure Humidity
    00:00 +17°C° 0 mm 2 mps 658 mmHg 66%
    01:00 +16°C° 0 mm 2 mps 658 mmHg 68%
    02:00 +16°C° 0 mm 2 mps 658 mmHg 71%
    03:00 +15°C° 0 mm 2 mps 658 mmHg 73%
    04:00 +15°C° 0 mm 2 mps 658 mmHg 75%
    05:00 +15°C° 0 mm 2 mps 658 mmHg 76%
    06:00 +14°C° 0 mm 2 mps 658 mmHg 78%
    07:00 +16°C° 0 mm 2 mps 658 mmHg 68%
    08:00 +18°C° 0 mm 2 mps 659 mmHg 59%
    09:00 +21°C° 0 mm 2 mps 659 mmHg 50%
    10:00 +23°C° 0.1 mm 2 mps 659 mmHg 46%
    11:00 +24°C° 0.1 mm 2 mps 659 mmHg 42%
    12:00 +25°C° 0.1 mm 2 mps 659 mmHg 38%
    13:00 +25°C° 0.2 mm 2 mps 659 mmHg 38%
    14:00 +25°C° 0.2 mm 2 mps 658 mmHg 38%
    15:00 +25°C° 0.2 mm 2 mps 658 mmHg 39%
    16:00 +23°C° 0.2 mm 2 mps 658 mmHg 45%
    17:00 +21°C° 0.2 mm 3 mps 658 mmHg 52%
    18:00 +19°C° 0.2 mm 3 mps 658 mmHg 58%
    19:00 +18°C° 0.1 mm 3 mps 658 mmHg 63%
    20:00 +17°C° 0.1 mm 3 mps 659 mmHg 67%
    21:00 +17°C° 0.1 mm 3 mps 659 mmHg 71%
    22:00 +16°C° 0 mm 3 mps 659 mmHg 73%
    23:00 +16°C° 0 mm 3 mps 659 mmHg 75%

    27 September, Thursday

    Time Temperature Precipitation Wind Pressure Humidity
    00:00 +15°C° 0 mm 2 mps 659 mmHg 77%
    01:00 +15°C° 0 mm 2 mps 659 mmHg 78%
    02:00 +14°C° 0 mm 2 mps 659 mmHg 79%
    03:00 +14°C° 0 mm 2 mps 659 mmHg 80%
    04:00 +14°C° 0 mm 2 mps 660 mmHg 81%
    05:00 +13°C° 0 mm 2 mps 660 mmHg 81%
    06:00 +13°C° 0 mm 2 mps 660 mmHg 82%
    07:00 +15°C° 0 mm 2 mps 660 mmHg 74%
    08:00 +18°C° 0 mm 1 mps 661 mmHg 66%
    09:00 +19°C° 0 mm 1 mps 662 mmHg 58%
    10:00 +20°C° 0 mm 2 mps 662 mmHg 54%
    11:00 +21°C° 0 mm 2 mps 662 mmHg 49%
    12:00 +23°C° 0 mm 2 mps 662 mmHg 45%
    13:00 +23°C° 0 mm 2 mps 662 mmHg 44%
    14:00 +24°C° 0 mm 2 mps 661 mmHg 43%
    15:00 +24°C° 0 mm 2 mps 661 mmHg 42%
    16:00 +21°C° 0.1 mm 2 mps 661 mmHg 49%
    17:00 +20°C° 0.1 mm 2 mps 661 mmHg 55%
    18:00 +18°C° 0.1 mm 2 mps 661 mmHg 62%
    19:00 +18°C° 0 mm 2 mps 661 mmHg 65%
    20:00 +17°C° 0 mm 2 mps 661 mmHg 67%
    21:00 +17°C° 0 mm 3 mps 662 mmHg 70%
    22:00 +16°C° 0 mm 2 mps 662 mmHg 73%
    23:00 +16°C° 0 mm 2 mps 662 mmHg 75%
    Show more